チェルヌイフ彗星

101P/Chernykh (2020)

English version
Home page
Updated on April 27, 2021

---------------------------------------------------------------------

・ プロフィール

・ 写真集

・ 軌道要素

Epoch 2020 Feb. 1.0 TT = JDT 2458880.5
T 2020 Jan. 12.51940 TT                                 Rudenko
q   2.3449775            (2000.0)            P               Q
n   0.07061271     Peri.  277.69567     +0.82630394     -0.55765598
a   5.7971448      Node   116.23040     +0.54522402     +0.75680806
e   0.5954944      Incl.    5.05278     +0.14125356     +0.34097121
P  14.0
From 1444 observations 2005 July 10-2021 Mar. 4, mean residual 1".7.
     Nongravitational parameters A1 = +6.89, A2 = -0.6585.

・ 星図

・ 光度変化

        m1 = -4.5 + 5 logΔ + 50   log r           [ ,0]  (              〜2020年 1月12日)
        m1 =  9.6 + 5 logΔ + 11.0 log r(t - 100)  [0, ]  (2020年 1月12日〜              )

---------------------------------------------------------------------

軌道要素はM.P.E.C. 2021-F20に掲載されたものです。
星図はステラナビゲータ Ver.10 (アストロアーツ) で作成したものです。
光度グラフはComet for Windowsで作成したものです。

---------------------------------------------------------------------

Copyright(C) Seiichi Yoshida (comet@aerith.net). All rights reserved.